Current weather by "City, St" or "zip code"  
 
Advertise Here

Current Conditions: Grant County Airport, NM

Fair


94.0 F

Last Updated on Aug 4 2020, 3:55 pm MDT
Humidity: 19%
Wind Speed: NE 15.0 mph
Barometer 30.17 in
Dewpoint: 45.0 F
Visibility: 10.00 mi
Precip: --
Heat Index: 90 F
Wind Chill: NA
Current conditions at:

Grant County Airport, NM (KSVC)

Lat: 32.63099 Lon: 108.14658

Local Radar Image active severe weather and emergency alerts image image weather storm and storm spotter reports image weather observation monitoring service image
Local
Radar
Active
Alerts
Storm Reports Obs
Monitoring

Sign-up For Email & Text Message Weather Alert Notification Services


Advertise Here

Observation History for Grant County Airport, NM


Time Wind
(mph)
Vis
(mi)
Weather Precip (in) Temperature (F) Relative
Humidity
Wind
Chill
(F)
Heat
Index
(F)
Pressure
Air Dwpt altimeter
(in)
sea level
(mb)
Rmks
3:55 pm MDT NE 15.0 10.00 Fair -- 94.0 45.0 19% NA 90 30.17 M
2:55 pm MDT N 5.8 10.00 Fair -- 92.0 41.2 17% NA 88 30.19 M
1:55 pm MDT W 6.9 G 16.1 10.00 Fair -- 92.0 42.8 18% NA 88 30.21 M
12:55 pm MDT W 12.7 G 21.9 10.00 Fair -- 91.0 45.5 21% NA 87 30.23 M
11:55 am MDT NW 17.3 G 23.0 10.00 Fair -- 88.0 48.9 26% NA 85 30.24 M
10:55 am MDT W 18.4 10.00 Fair -- 86.0 50.4 30% NA 84 30.25 M
9:55 am MDT NW 17.3 10.00 Fair -- 83.0 50.7 33% NA 81 30.25 M
8:55 am MDT N 8.1 10.00 Fair -- 76.0 52.0 44% NA NA 30.26 M
7:55 am MDT NW 12.7 10.00 Fair -- 71.0 51.6 51% NA NA 30.24 M
6:55 am MDT N 0.0 10.00 Fair -- 70.0 52.7 55% NA NA 30.23 M
5:55 am MDT W 6.9 10.00 Fair -- 72.0 51.1 48% NA NA 30.22 M
4:55 am MDT NW 5.8 10.00 Fair -- 69.0 53.2 57% NA NA 30.21 M
3:55 am MDT N 4.6 10.00 Fair -- 70.0 53.4 56% NA NA 30.21 M
2:55 am MDT N 8.1 10.00 Fair -- 71.0 52.3 52% NA NA 30.24 M
1:55 am MDT N 12.7 10.00 Partly Cloudy -- 70.0 54.7 58% NA NA 30.25 M
12:55 am MDT W 3.5 10.00 Fair -- 73.0 52.0 48% NA NA 30.24 M
11:55 pm MDT SW 11.5 10.00 Overcast -- 72.0 55.9 58% NA NA 30.25 M
10:55 pm MDT N 9.2 10.00 Partly Cloudy -- 72.0 55.4 57% NA NA 30.23 M
9:55 pm MDT N 9.2 10.00 Fair -- 70.0 60.4 71% NA NA 30.23 M
8:55 pm MDT SW 9.2 G 18.4 10.00 Partly Cloudy 00.08 73.0 54.9 53% NA NA 30.23 M
7:55 pm MDT NW 9.2 10.00 Thunderstorm Light Rain in Vicinity -- 78.0 51.8 40% NA NA 30.23 M
6:55 pm MDT SE 11.5 10.00 Partly Cloudy -- 83.0 43.9 25% NA 81 30.18 M
5:55 pm MDT NE 26.5 G 35.7 10.00 Thunderstorm in Vicinity and Windy -- 85.0 44.8 24% NA 82 30.17 M
4:55 pm MDT NW 17.3 G 21.9 10.00 Thunderstorm in Vicinity -- 94.0 44.4 18% NA 90 30.15 M

Regional Weather Observation


Lordsburg Municipal Airport, NM (KLSB)

Fair
63.0 F

Deming Municipal Airport, NM (KDMN)

Fair
101.0 F

Truth Or Consequences, Truth Or Consequences Municipal Airport, NM (KTCS)

Fair
99.0 F

Safford, Safford Municipal Airport, AZ (KSAD)

Fair
105.0 F

Las Cruces, Las Cruces International Airport, NM (KLRU)

Fair
100.0 F

Bisbee Douglas International Airport, AZ (KDUG)

Fair
36.0 F